{"data":{"norad_id":66815,"epoch":"2026-09-20T19:55:35.608800Z","epoch_age_seconds":57934,"freshness":"FRESH","line1":"1 66815U 25278AA  26263.83027325  .00011209  00000+0  41611-3 0  9997","line2":"2 66815  43.0003  92.2772 0000792 283.8956  76.1808 15.27590432 46262","mean_motion":15.27590432,"eccentricity":7.92e-5,"inclination_deg":43.0003,"raan_deg":92.2772,"arg_perigee_deg":283.8956,"mean_anomaly_deg":76.1808,"bstar":0.00041611,"rev_number":4626,"period_min":94.266104960783,"perigee_km":482.47445559169,"apogee_km":483.56126252137,"semimajor_km":6861.1548590565,"source":"CELESTRAK","updated_at":"2026-09-21T09:00:36.018339Z"}}